[[{"header":{"parameterUnit":"m.s-1","parameterCategory":1,"la1":30.2991,"la2":30.254,"lo1":-89.0895,"lo2":-89.0444,"dy":0.0017,"dx":0.0017,"nx":28,"ny":28,"refTime":"2025-04-08T03:00:00:Z","depth":0,"parameterNumber":2,"parameterNumberName":"U-component_of_WINDS"},"data":[0,0,0,0,0,0,0,0,0,0,0,0,0,0,0,0,0,0,0,0,0,0,0,0,0,0,0,0,0,0,0,0,0,0,0,0,0,0,0,0,0,0,0,0,0,0,0,0,0,0,0,0,0,0,0,0,0,0,2.2441,2.2441,0,2.2448,2.2448,2.2448,2.2409,2.2408,2.2407,2.2406,2.2413,2.2414,2.2416,0,0,0,0,0,0,0,0,0,0,0,0,0,2.2397,2.2398,2.2441,2.2441,2.2442,2.2448,2.2448,2.2448,2.241,2.2408,2.2407,2.2406,2.2413,2.2414,2.2416,0,0,0,0,0,0,0,0,0,0,0,0,0,2.2411,2.2398,2.2441,2.2423,2.2422,2.2448,2.2448,2.2448,2.241,2.2408,2.2407,2.2405,2.2412,2.2414,2.2416,2.246,0,0,2.2422,2.2422,0,0,0,0,0,0,0,0,2.241,2.2413,2.2426,2.2424,2.2423,2.2426,2.2435,2.2452,2.241,2.2414,2.2406,2.2404,2.2419,2.242,2.2425,2.2461,2.2461,2.2422,2.2423,2.2424,2.2424,0,0,0,0,0,0,0,2.2409,2.2412,2.2444,2.2426,2.2424,2.2415,2.2415,2.2438,2.2426,2.2414,2.2411,2.2412,2.2418,2.2423,2.2425,2.2461,2.2422,2.2423,2.2424,2.2425,2.2534,2.2535,0,0,0,0,0,0,2.2411,2.2412,2.2444,2.2444,2.2412,2.2417,2.2417,2.2427,2.2425,2.2424,2.2414,2.2411,2.2421,2.2423,2.2425,2.2476,2.2424,2.2425,2.2426,2.2532,2.2534,2.2536,0,0,0,0,0,0,2.241,2.2414,2.2443,2.2427,2.243,2.242,2.243,2.2428,2.2433,2.2425,2.2423,2.2421,2.242,2.2422,2.2452,2.2476,2.2426,2.2428,2.253,2.2533,2.2535,2.258,0,0,0,0,0,0,2.2409,2.2414,2.243,2.2428,2.2431,2.247,2.2432,2.2429,2.2436,2.2432,2.2432,2.243,2.2419,2.2449,2.2454,2.2478,2.2429,2.2528,2.2531,2.2534,2.2576,2.2584,2.2591,0,0,0,0,0,2.2407,2.2443,2.2431,2.2435,2.2451,2.2471,2.2473,2.2459,2.2438,2.2455,2.245,2.243,2.2473,2.2453,2.2457,2.2482,2.2526,2.253,2.2534,2.2573,2.2583,2.2591,0,0,0,0,0,0,2.2448,2.2442,2.2429,2.2465,2.2469,2.2465,2.2485,2.2469,2.2479,2.2475,2.2457,2.2457,2.249,2.2489,2.2466,2.2525,2.2496,2.2501,2.2524,2.2533,2.254,2.2539,2.2431,0,0,0,0,0,2.2461,2.2478,2.2472,2.2504,2.2506,2.2496,2.2504,2.2492,2.2496,2.2498,2.2495,2.2499,2.2514,2.2524,2.2536,2.2577,2.2576,2.2596,2.2604,2.2609,2.2614,2.2635,2.2644,2.2549,2.2549,2.2549,0,0,2.2488,2.2487,2.2499,2.2512,2.2514,2.2531,2.2497,2.2517,2.253,2.2501,2.2528,2.2527,2.2531,2.2566,2.2581,2.2566,2.264,2.2615,2.2619,2.262,2.264,2.2649,2.2657,2.2552,2.2552,2.2551,0,0,2.2547,2.2548,2.2574,2.2577,2.2581,2.2573,2.258,2.2579,2.2576,2.2604,2.2582,2.2598,2.2623,2.2627,2.2632,2.2693,2.2675,2.2698,2.2735,2.2756,2.2763,2.277,2.2791,2.2799,2.2703,2.2703,2.2703,0,2.258,2.2605,2.259,2.2612,2.2618,2.2593,2.262,2.2624,2.2631,2.2636,2.262,2.2651,2.2652,2.2688,2.2703,2.2708,2.2715,2.2697,2.2763,2.277,2.2776,2.2796,2.2804,2.2705,2.2705,2.2705,2.2705,0,2.2646,2.2664,2.2686,2.2694,2.2703,2.2727,2.2716,2.2727,2.2716,2.2711,2.2739,2.274,2.2752,2.276,2.2749,2.2794,2.2785,2.2766,2.2736,2.2787,2.2806,2.2814,2.2709,2.2708,2.2708,2.2707,0,0,2.2729,2.2729,2.2737,2.274,2.2743,2.2757,2.2781,2.2793,2.2803,2.281,2.2829,2.2851,2.2834,2.284,2.283,2.2848,2.2897,2.2827,2.2827,2.284,2.2947,2.296,2.2969,2.2886,2.2887,2.2888,2.2946,0,2.2785,2.2825,2.2813,2.2853,2.287,2.2846,2.2867,2.2871,2.2867,2.2881,2.2877,2.2894,2.287,2.2873,2.2891,2.2887,2.2918,2.2883,2.2903,2.2904,2.2902,2.2979,2.2993,2.3048,2.2954,2.2955,2.2956,0,2.2856,2.2866,2.2908,2.2908,2.2914,2.2933,2.2944,2.2957,2.2962,2.2958,2.2966,2.2951,2.2975,2.2946,2.2979,2.2955,2.2963,2.2963,2.2965,2.2965,2.2932,2.2981,2.3065,2.3073,2.2967,2.2966,2.2966,0,2.2911,2.2935,2.2963,2.2967,2.2968,2.2982,2.2983,2.2986,2.2994,2.3004,2.3009,2.3022,2.3029,2.3039,2.3029,2.3009,2.3063,2.3033,2.306,2.306,2.3071,2.307,2.3157,2.3078,2.3078,2.3078,2.3078,0,2.2975,2.3002,2.2988,2.3005,2.3034,2.302,2.305,2.3048,2.3051,2.3068,2.305,2.3066,2.3052,2.3067,2.306,2.3088,2.3091,2.3089,2.3086,2.3089,2.309,2.3093,2.3089,2.308,2.308,2.3079,2.3079,0,2.3041,2.3033,2.3062,2.3061,2.3062,2.3083,2.3082,2.3099,2.3094,2.3116,2.312,2.3113,2.313,2.3121,2.3139,2.3134,2.317,2.3163,2.3168,2.3166,2.3193,2.319,2.3284,2.3295,2.3211,2.3212,2.3212,0,2.3082,2.3101,2.3103,2.3113,2.3115,2.3131,2.314,2.3128,2.3138,2.3145,2.316,2.3176,2.3187,2.3216,2.3213,2.3226,2.3219,2.3251,2.3221,2.3224,2.3218,2.3217,2.3219,2.3256,2.3257,2.3258,2.3259,0,2.3154,2.315,2.3162,2.3175,2.3185,2.3194,2.3202,2.3211,2.3199,2.3211,2.3228,2.3238,2.3256,2.3272,2.3284,2.3285,2.327,2.3269,2.3275,2.3279,2.328,2.3279,2.3184,2.3266,2.3265,2.3265,2.3264,2.3264,2.3208,2.3225,2.3228,2.3244,2.3248,2.3256,2.3271,2.3268,2.3283,2.3296,2.3289,2.3309,2.3314,2.3329,2.3333,2.3348,2.3336,2.3346,2.3348,2.335,2.3354,2.3279,2.3351,2.3351,2.335,2.335,2.335,0,2.3279,2.3281,2.3295,2.3306,2.3318,2.3303,2.3311,2.3322,2.334,2.3346,2.3358,2.3379,2.3394,2.3393,2.3407,2.342,2.3413,2.3424,2.3422,2.3423,2.3365,2.3357,2.3429,2.3429,2.3429,2.3429,2.3429,2.3429,2.3317,2.3344,2.334,2.337,2.3371,2.3391,2.3396,2.3404,2.3408,2.3432,2.3444,2.3443,2.3446,2.3461,2.3475,2.3474,2.348,2.3493,2.3489,2.3435,2.3427,2.3419,2.3412,2.3494,2.3495,2.3546,2.3546,2.3547]},{"header":{"parameterUnit":"m.s-1","parameterCategory":1,"la1":30.2991,"la2":30.254,"lo1":-89.0895,"lo2":-89.0444,"dy":0.0017,"dx":0.0017,"nx":28,"ny":28,"refTime":"2025-04-08T03:00:00:Z","depth":0,"parameterNumber":3,"parameterNumberName":"V-component_of_WINDS"},"data":[0,0,0,0,0,0,0,0,0,0,0,0,0,0,0,0,0,0,0,0,0,0,0,0,0,0,0,0,0,0,0,0,0,0,0,0,0,0,0,0,0,0,0,0,0,0,0,0,0,0,0,0,0,0,0,0,0,0,-4.636,-4.6362,0,-4.6523,-4.6525,-4.6526,-4.6507,-4.6505,-4.6502,-4.6499,-4.6665,-4.6672,-4.6678,0,0,0,0,0,0,0,0,0,0,0,0,0,-4.6032,-4.6038,-4.636,-4.6362,-4.6364,-4.6522,-4.6525,-4.6527,-4.6508,-4.6504,-4.6501,-4.6498,-4.6663,-4.6671,-4.6679,0,0,0,0,0,0,0,0,0,0,0,0,0,-4.6182,-4.604,-4.636,-4.6374,-4.6376,-4.6522,-4.6525,-4.6527,-4.6508,-4.6504,-4.65,-4.6497,-4.666,-4.667,-4.668,-4.6822,0,0,-4.6712,-4.6716,0,0,0,0,0,0,0,0,-4.6174,-4.6195,-4.637,-4.6373,-4.6376,-4.6491,-4.647,-4.6626,-4.6509,-4.6458,-4.6499,-4.6495,-4.661,-4.6624,-4.6663,-4.683,-4.6837,-4.6713,-4.6719,-4.6723,-4.6726,0,0,0,0,0,0,0,-4.6164,-4.6187,-4.6424,-4.6372,-4.6376,-4.6371,-4.6388,-4.6499,-4.6554,-4.6462,-4.6461,-4.6481,-4.6611,-4.6654,-4.6667,-4.6839,-4.6712,-4.6721,-4.6728,-4.6732,-4.713,-4.7134,0,0,0,0,0,0,-4.615,-4.6179,-4.6419,-4.6429,-4.6263,-4.638,-4.64,-4.6458,-4.6553,-4.6564,-4.6484,-4.6479,-4.6638,-4.6655,-4.6673,-4.6845,-4.6723,-4.6733,-4.6739,-4.7125,-4.7131,-4.7135,0,0,0,0,0,0,-4.6143,-4.6171,-4.6413,-4.6304,-4.6334,-4.639,-4.6456,-4.6463,-4.6505,-4.6569,-4.6579,-4.6517,-4.6635,-4.6658,-4.6785,-4.685,-4.6737,-4.6747,-4.712,-4.7127,-4.7133,-4.719,0,0,0,0,0,0,-4.6133,-4.6169,-4.6224,-4.6305,-4.634,-4.6523,-4.646,-4.6469,-4.6523,-4.6519,-4.6603,-4.6613,-4.6634,-4.677,-4.6795,-4.6862,-4.6755,-4.7114,-4.7123,-4.7131,-4.7182,-4.7197,-4.721,0,0,0,0,0,-4.6122,-4.6233,-4.6227,-4.6256,-4.641,-4.6526,-4.6546,-4.6568,-4.6529,-4.6584,-4.6625,-4.661,-4.6839,-4.6783,-4.6811,-4.6882,-4.711,-4.7121,-4.713,-4.7176,-4.7194,-4.721,0,0,0,0,0,0,-4.6158,-4.6244,-4.6238,-4.6379,-4.6446,-4.6523,-4.6593,-4.6587,-4.6667,-4.6659,-4.6683,-4.6702,-4.683,-4.6869,-4.6805,-4.7024,-4.6969,-4.6985,-4.6994,-4.7012,-4.7026,-4.7014,-4.6763,0,0,0,0,0,-4.6182,-4.627,-4.6341,-4.6458,-4.6492,-4.6537,-4.6589,-4.66,-4.667,-4.6698,-4.6748,-4.6816,-4.6903,-4.696,-4.7044,-4.7188,-4.7205,-4.7251,-4.7265,-4.7276,-4.7289,-4.7368,-4.7389,-4.7168,-4.7168,-4.7168,0,0,-4.6234,-4.6292,-4.6346,-4.6467,-4.652,-4.661,-4.6561,-4.6658,-4.6725,-4.6713,-4.6835,-4.6874,-4.6952,-4.7088,-4.715,-4.7124,-4.7354,-4.7289,-4.7297,-4.7305,-4.738,-4.7401,-4.742,-4.7175,-4.7173,-4.7172,0,0,-4.6373,-4.6426,-4.6529,-4.6583,-4.6664,-4.6693,-4.6718,-4.6797,-4.6822,-4.6946,-4.6938,-4.7018,-4.7167,-4.7223,-4.727,-4.743,-4.742,-4.7457,-4.753,-4.7606,-4.7624,-4.7639,-4.7696,-4.7716,-4.747,-4.747,-4.747,0,-4.6426,-4.6562,-4.6583,-4.6682,-4.6735,-4.6728,-4.6833,-4.6884,-4.6988,-4.7025,-4.6995,-4.7182,-4.7234,-4.7382,-4.7421,-4.746,-4.7489,-4.7447,-4.762,-4.7635,-4.765,-4.7704,-4.7725,-4.7474,-4.7474,-4.7473,-4.7473,0,-4.6623,-4.6718,-4.6792,-4.6892,-4.6954,-4.7055,-4.7092,-4.7151,-4.7157,-4.7189,-4.7315,-4.7377,-4.7472,-4.7508,-4.7515,-4.7658,-4.7639,-4.7614,-4.7559,-4.7675,-4.7726,-4.7747,-4.748,-4.7478,-4.7477,-4.7476,0,0,-4.679,-4.6901,-4.6928,-4.6973,-4.7061,-4.7134,-4.7235,-4.7329,-4.7379,-4.7451,-4.7536,-4.7662,-4.764,-4.7694,-4.7706,-4.7774,-4.7895,-4.774,-4.7742,-4.7766,-4.8056,-4.8074,-4.8097,-4.7889,-4.7893,-4.7896,-4.8049,0,-4.6938,-4.7116,-4.7138,-4.7296,-4.7383,-4.7377,-4.7465,-4.7528,-4.7561,-4.7639,-4.7675,-4.7764,-4.7727,-4.776,-4.7826,-4.7867,-4.7954,-4.7856,-4.7967,-4.7971,-4.7948,-4.8124,-4.8144,-4.8285,-4.8069,-4.8073,-4.8075,0,-4.7134,-4.7211,-4.7378,-4.7454,-4.7491,-4.7569,-4.7657,-4.7732,-4.7803,-4.7822,-4.7883,-4.7887,-4.799,-4.7931,-4.8073,-4.8006,-4.8053,-4.808,-4.8086,-4.8097,-4.803,-4.8139,-4.8331,-4.8351,-4.8107,-4.8104,-4.8102,0,-4.7238,-4.7384,-4.7502,-4.7541,-4.7633,-4.7688,-4.7729,-4.7796,-4.7851,-4.7928,-4.7963,-4.805,-4.8098,-4.8165,-4.8193,-4.8147,-4.8333,-4.8277,-4.8351,-4.8351,-4.8391,-4.8388,-4.8591,-4.8422,-4.8421,-4.8421,-4.8421,0,-4.7401,-4.7503,-4.755,-4.7623,-4.7737,-4.7762,-4.7874,-4.7912,-4.7972,-4.8052,-4.8052,-4.8127,-4.8159,-4.8238,-4.826,-4.8375,-4.8396,-4.8414,-4.8418,-4.8414,-4.8411,-4.8444,-4.8435,-4.8427,-4.8425,-4.8424,-4.8423,0,-4.7536,-4.7572,-4.7701,-4.7777,-4.7798,-4.7879,-4.7944,-4.8014,-4.8046,-4.8147,-4.8172,-4.8222,-4.8315,-4.8349,-4.8463,-4.8478,-4.861,-4.8607,-4.8586,-4.8587,-4.8659,-4.8652,-4.8891,-4.8923,-4.8733,-4.8735,-4.8736,0,-4.7637,-4.7716,-4.78,-4.7854,-4.7896,-4.7982,-4.8038,-4.8065,-4.8123,-4.821,-4.827,-4.8363,-4.8439,-4.8589,-4.8635,-4.8722,-4.872,-4.8798,-4.8733,-4.8726,-4.872,-4.8715,-4.8723,-4.881,-4.8812,-4.8813,-4.8815,0,-4.7813,-4.7826,-4.7907,-4.7994,-4.8061,-4.813,-4.8198,-4.8242,-4.8278,-4.8344,-4.8439,-4.8498,-4.8615,-4.8707,-4.8796,-4.8837,-4.8832,-4.8835,-4.8856,-4.8852,-4.8837,-4.8845,-4.8618,-4.8829,-4.8828,-4.8827,-4.8826,-4.8825,-4.7934,-4.8003,-4.8073,-4.8162,-4.8216,-4.8279,-4.8349,-4.8389,-4.8469,-4.8566,-4.8577,-4.868,-4.8749,-4.8868,-4.8913,-4.8994,-4.8972,-4.9004,-4.9012,-4.9019,-4.9024,-4.8824,-4.901,-4.901,-4.9009,-4.9009,-4.9009,0,-4.8108,-4.8153,-4.8235,-4.833,-4.84,-4.8389,-4.8463,-4.8523,-4.8613,-4.8678,-4.8753,-4.8863,-4.8952,-4.9005,-4.9094,-4.9149,-4.9148,-4.9171,-4.9167,-4.9176,-4.9038,-4.901,-4.917,-4.917,-4.917,-4.917,-4.917,-4.917,-4.8208,-4.8324,-4.8346,-4.8488,-4.8532,-4.8633,-4.8676,-4.8734,-4.8786,-4.8908,-4.8983,-4.9017,-4.9077,-4.917,-4.9252,-4.9265,-4.9297,-4.9322,-4.9333,-4.9203,-4.9186,-4.917,-4.9144,-4.9329,-4.9329,-4.9464,-4.9465,-4.9466]}]]